This is the latest recevied weather packets stored in our database for station/object KE7JVX-3. If no packets are shown the sender has not sent any weather packets the latest 10 day(s).
| Time | Temp. | Humidity | Pressure | Rain* | Wind** | Luminosity | Snow |
|---|---|---|---|---|---|---|---|
| 1777415967 | 10.56° C | 3% | 1012.4 hPa | 0 mm | - | - | - |
| 1777415367 | 11.11° C | 2% | 1012.5 hPa | 0 mm | - | - | - |
| 1777414767 | 10° C | 1% | 1012.5 hPa | 0 mm | - | - | - |
| 1777414167 | 10.56° C | 1% | 1012.6 hPa | 0 mm | - | - | - |
| 1777413568 | 10.56° C | 1% | 1012.7 hPa | 0 mm | - | - | - |
| 1777412968 | 10° C | 3% | 1012.8 hPa | 0 mm | - | - | - |
| 1777412368 | 10° C | 1% | 1012.8 hPa | 0 mm | - | - | - |
| 1777411767 | 10° C | - | 1012.9 hPa | 0 mm | - | - | - |
| 1777411167 | 10.56° C | - | 1013 hPa | 0 mm | - | - | - |
| 1777410567 | 10.56° C | 1% | 1012.9 hPa | 0 mm | - | - | - |
| 1777409967 | 10° C | - | 1012.9 hPa | 0 mm | - | - | - |
| 1777409369 | 10° C | 3% | 1013 hPa | 0 mm | - | - | - |
| 1777408768 | 10° C | 4% | 1013.2 hPa | 0 mm | - | - | - |
| 1777408167 | 10.56° C | 7% | 1013.2 hPa | 0 mm | - | - | - |
| 1777407567 | 11.11° C | 8% | 1013.2 hPa | 0 mm | - | - | - |
| 1777406970 | 10° C | 6% | 1013 hPa | 0 mm | - | - | - |
| 1777406368 | 10° C | 7% | 1013.1 hPa | 0 mm | - | - | - |
| 1777405768 | 10° C | 9% | 1013.1 hPa | 0 mm | - | - | - |
| 1777405167 | 10° C | 8% | 1013.2 hPa | 0 mm | - | - | - |
| 1777404567 | 10° C | 6% | 1013.2 hPa | 0 mm | - | - | - |
| 1777403967 | 10° C | 8% | 1013.1 hPa | 0 mm | - | - | - |
| 1777403368 | 9.44° C | 9% | 1013.1 hPa | 0 mm | - | - | - |
| 1777402767 | 9.44° C | 12% | 1013.2 hPa | 0 mm | - | - | - |
| 1777402167 | 9.44° C | 13% | 1013.3 hPa | 0 mm | - | - | - |
| 1777401567 | 8.89° C | 15% | 1013.3 hPa | 0 mm | - | - | - |
* Rain latest hour (hover to see other rain measurements)
** Current wind speed in m/s (hover to see current wind gust speed)